Location: Cranford
(40.6578°N, 74.3024°W)
Time: 00:13:22
(UTC+00:00)

STARLINK-5186 - Visible Passes

Search period start: 20 July 2024 00:00
Search period end: 30 July 2024 00:00
Orbit: 539 x 541 km, 53.2° (Epoch: 19 July)

Date Brightness Start Highest point End Pass type
(mag) Time Alt. Az. Time Alt. Az. Time Alt. Az.
20 Jul ? 01:14:57 10° NW 01:17:32 16° NNW 01:20:07 10° NNE visible
20 Jul ? 02:55:43 10° NNW 02:58:13 15° N 03:00:42 10° NE visible
20 Jul ? 04:34:37 10° NW 04:37:42 35° N 04:37:42 35° N visible
21 Jul ? 01:06:35 10° NW 01:09:00 15° N 01:11:25 10° NNE visible
21 Jul ? 02:47:00 10° NNW 02:49:41 17° NNE 02:52:20 10° NE visible
21 Jul ? 04:25:52 10° NW 04:28:38 35° NNW 04:28:38 35° NNW visible
22 Jul ? 00:58:09 10° NW 01:00:27 14° N 01:02:45 10° NNE visible
22 Jul ? 02:38:14 10° NNW 02:41:06 18° NNE 02:43:57 10° ENE visible
22 Jul ? 04:17:05 10° NW 04:19:39 35° NNW 04:19:39 35° NNW visible
23 Jul ? 00:49:40 10° NW 00:51:52 14° N 00:54:05 10° NNE visible
23 Jul ? 02:29:26 10° NNW 02:32:29 20° NNE 02:35:19 11° ENE visible
23 Jul ? 04:08:18 10° NW 04:10:44 34° NW 04:10:44 34° NW visible
24 Jul ? 02:20:36 10° NNW 02:23:50 22° NNE 02:26:25 13° ENE visible
24 Jul ? 03:59:31 10° NW 04:01:50 33° NW 04:01:50 33° NW visible
25 Jul ? 02:11:44 10° NNW 02:15:09 25° NNE 02:17:33 15° ENE visible
25 Jul ? 03:50:44 10° NW 03:52:58 31° WNW 03:52:58 31° WNW visible
26 Jul ? 02:02:49 10° NW 02:06:25 29° NNE 02:08:43 17° ENE visible
26 Jul ? 03:41:56 10° WNW 03:44:07 29° WNW 03:44:07 29° WNW visible
27 Jul ? 01:53:54 10° NW 01:57:39 33° NNE 01:59:54 19° E visible
27 Jul ? 03:33:10 10° WNW 03:35:19 27° W 03:35:19 27° W visible
28 Jul ? 01:44:58 10° NW 01:48:50 40° NNE 01:51:07 21° E visible
28 Jul ? 03:24:25 10° WNW 03:26:32 24° W 03:26:32 24° W visible
29 Jul ? 01:36:00 10° NW 01:39:58 48° NNE 01:42:22 22° E visible
29 Jul ? 03:15:44 10° WNW 03:17:47 21° W 03:17:47 21° W visible
